Regional Weather Roundup
Issued by NWS

Home | Current Version | Previous Version | Text Only | Print | Product List | Glossary Off
Versions: 1 2 3 4 5 6 7 8 9 10 11 12 13 14 15 16 17 18 19 20 21 22 23 24 25 26 27 28 29 30 31 32 33 34 35 36 37 38 39 40 41 42 43 44 45 46 47 48 49 50

000
ASUS43 KFSD 200502
RWRSD

WEATHER ROUNDUP FOR SOUTH DAKOTA
NATIONAL WEATHER SERVICE SIOUX FALLS SD
1100 PM CST FRI JAN 19 2018

NOTE: "FAIR" INDICATES FEW OR NO CLOUDS BELOW 12,000 FEET WITH NO
SIGNIFICANT WEATHER AND/OR OBSTRUCTIONS TO VISIBILITY.


SDZ001>005-009-010-012>017-200600-
NORTHWEST AND NORTH CENTRAL SOUTH DAKOTA

CITY           SKY/WX    TMP DP  RH WIND       PRES   REMARKS
BUFFALO          N/A     35  32  88 W6        29.71R
FAITH            N/A     36  33  89 NW7       29.77R
MOBRIDGE       CLOUDY    35  30  82 CALM      29.73R
$$

SDZ012>016-024>037-041>051-057-063-072>074-200600-
SOUTHWEST AND SOUTH CENTRAL SOUTH DAKOTA

CITY           SKY/WX    TMP DP  RH WIND       PRES   REMARKS
RAPID CTY ARPT CLOUDY    35  31  85 CALM      29.77R
PIERRE         CLEAR     30  28  92 W10       29.77R WCI  21
CUSTER         CLOUDY    32  25  75 SE3       29.74R
ELLSWORTH AFB  CLOUDY    33  33 100 CALM      29.77R
PHILIP         CLOUDY    30  29  96 W9        29.79R WCI  22
PINE RIDGE     MOCLDY    27  26  96 W3        29.77R
SPEARFISH      LGT RAIN  34  32  93 CALM      29.78R
WINNER         FAIR      35  30  82 CALM      29.78R
$$

SDZ004>011-016>023-039-040-200600-
NORTHEAST SOUTH DAKOTA

CITY           SKY/WX    TMP DP  RH WIND       PRES   REMARKS
ABERDEEN       PTCLDY    23  21  92 SW6       29.74R WCI  16
WATERTOWN      PTCLDY    29  27  92 SW5       29.73R WCI  24
BROOKINGS      CLOUDY    33  28  81 W6        29.76R WCI  28
SISSETON         N/A     31  26  82 NW6       29.72R WCI  25
$$

SDZ017-020-022-023-036>040-048>070-200600-
SOUTHEAST SOUTH DAKOTA

CITY           SKY/WX    TMP DP  RH WIND       PRES   REMARKS
SIOUX FALLS    CLOUDY    35  30  82 NW5       29.76R
HURON          PTCLDY    29  27  92 NW5       29.76R WCI  24
CHAMBERLAIN    PTCLDY    33  32  96 SW5       29.78R WCI  28
MITCHELL       CLOUDY    34  30  85 CALM      29.77S
YANKTON        CLOUDY    36  30  79 NW5       29.76R
$$

ABBREVIATIONS USED IN REMARKS
   TC - TEMPERATURE IN CELSIUS
  WCI - WIND CHILL INDEX
   HX - HEAT INDEX
  VSB - VISIBILITY




USA.gov is the U.S. government's official web portal to all federal, state and local government web resources and services.